Miscellaneous Local Product
Issued by NWS Hastings, NE

Home | Current Version | Previous Version | Graphics & Text | Print | Product List | Glossary On
Versions: 1 2 3 4 5 6 7 8 9 10 11 12 13 14 15 16 17 18 19 20 21 22 23 24 25 26 27 28 29 30 31 32 33 34 35 36 37 38 39 40 41 42 43 44 45 46 47 48 49 50
000
AXUS43 KGID 272002
MISGRI

GID CWA HOURLY WEATHER ROUNDUP
NATIONAL WEATHER SERVICE HASTINGS NE
300 PM CDT SAT MAY 27 2017

NOTE: "FAIR" INDICATES FEW OR NO CLOUDS BELOW 12,000 FEET WITH NO
SIGNIFICANT WEATHER AND/OR OBSTRUCTIONS TO VISIBILITY.

...SOUTH CENTRAL NEBRASKA...

CITY           SKY/WX    TMP DP  RH WIND       PRES   REMARKS
GRAND ISLAND   MOSUNNY   73  48  41 N16       29.92S
HASTINGS       SUNNY     73  52  47 N12       29.92S
KEARNEY        CLOUDY    72  48  43 N13G18    29.94S
ORD            CLOUDY    64  51  62 N16       29.96R
YORK           SUNNY     73  50  43 N9G17     29.88F
AURORA         SUNNY     74  46  36 N9G20     29.90S
LEXINGTON      CLOUDY    67  54  61 N10       29.97S
HOLDREGE       CLOUDY    70  51  51 N10       29.94S
HEBRON         MOSUNNY   74  60  62 NE8       29.87F

...NEBRASKA PANHANDLE...

CITY           SKY/WX    TMP DP  RH WIND       PRES   REMARKS
CHADRON        CLOUDY    56  45  66 NE12      30.08R
ALLIANCE       LGT RAIN  57  45  64 N10G24    30.06S
SCOTTSBLUFF    PTSUNNY   62  43  49 N13G26    30.08S
SIDNEY         PTSUNNY   62  45  53 N17       30.07F

...WESTERN AND NORTH CENTRAL NEBRASKA...

CITY           SKY/WX    TMP DP  RH WIND       PRES   REMARKS
VALENTINE      PTSUNNY   65  47  52 N5        30.01F
AINSWORTH      CLOUDY    57  53  85 CALM      30.02F
ONEILL         CLOUDY    60  50  67 NW6       29.99F
BROKEN BOW     CLOUDY    65  52  62 N18       29.99R
IMPERIAL       CLOUDY    65  49  56 N17G25    30.02F
NORTH PLATTE   CLOUDY    64  54  69 N7        30.02S
MCCOOK         CLOUDY    69  53  56 N17       29.97F

...EASTERN NEBRASKA...

CITY           SKY/WX    TMP DP  RH WIND       PRES   REMARKS
NORFOLK        MOSUNNY   72  47  40 NE10G20   29.90F
SO SIOUX CITY  SUNNY     73  51  46 N14       29.89F
TEKAMAH        SUNNY     76  47  35 NE16G26   29.85F
ALBION         CLOUDY    71  51  50 N12       29.93S
OMAHA EPPLEY   PTSUNNY   70  57  63 NE13      29.84F
OFFUTT AFB     MOSUNNY   70  59  67 NE8       29.84F
MILLARD        PTSUNNY   71  59  66 NE6       29.85F
LINCOLN        SUNNY     73  58  59 N8        29.86F
NEBRASKA CITY  PTSUNNY   70  61  74 NE14G20   29.84S
BEATRICE       SUNNY     72  61  69 N12       29.85S
FALLS CITY     PTSUNNY   70  61  73 NE9       29.83R

...NORTHERN KANSAS...

CITY           SKY/WX    TMP DP  RH WIND       PRES   REMARKS
GOODLAND       PTSUNNY   65  50  58 N20G28    30.01S
HILL CITY      PTSUNNY   72  58  61 N16G22    29.93R
NORTON         CLOUDY    70  54  56 N9        29.93S
PHILLIPSBURG   CLOUDY    72  55  56 N10G16    29.91S
SMITH CENTER   CLOUDY    72  57  60 N10       29.91S
HAYS           PTSUNNY   74  60  61 N12       29.89F
RUSSELL        PTSUNNY   75  60  59 NW12      29.87F
CONCORDIA      PTSUNNY   72  62  71 N10       29.85F
SALINA         CLOUDY    77  63  61 NW16G25   29.84R
TOPEKA         MOSUNNY   76  64  66 NW5       29.82R



USA.gov is the U.S. government's official web portal to all federal, state and local government web resources and services.